Location: Eschentzwiller
(47.7125°N, 7.3981°E)
Time: 03:35:38
(UTC+00:00)

Cosmos 2058 - Pass Details

Date: 27 October 2020
Orbit: 562 x 583 km, 82.5° (Epoch: 01 December)

Event Time Altitude Azimuth Distance (km) Brightness Sun altitude
Rises 17:23:21 0° 359° (N) 2,768 6.3 -11.2°
Reaches altitude 10° 17:25:45 10° 10° (N) 1,866 5.3 -11.6°
Maximum altitude 17:29:23 30° 72° (ENE) 1,038 3.7 -12.2°
Drops below altitude 10° 17:32:59 10° 135° (SE) 1,854 5.1 -12.8°
Enters shadow 17:35:09 - 145° (SE) 2,664 6.0 -13.2°
